sat.trackr.live / text

‹ back to catalog

DJIBOUTI-1B

NORAD 62402 · 2024-247AB

PAYLOAD ACTIVE UNKNOWN

§ Identity

Operator
Country
DJI
Launch date
2024-12-21
Launch site
AFWTR
Launch vehicle
Mass (kg)
RCS (m²)

External: N2YO · Heavens-Above · Gunter

§ Orbital elements

Epoch: 2026-09-22T09:50:41.834688Z

Period
91.80 min
Inclination
44.9666°
Eccentricity
0.0011057
Mean motion
15.68655606 rev/d
Perigee alt
355.3 km
Apogee alt
370.2 km
Semi-major
6,740.9 km
B*
7.3428e-4
RAAN
44.7094°
Arg perigee
288.6998°
Mean anomaly
71.2700°
Rev number
9,873

§ Raw data

DJIBOUTI-1B1 62402U 24247AB  26265.41020642  .00086550  00000+0  73428-3 0  99932 62402  44.9666  44.7094 0011057 288.6998  71.2700 15.68655606 98735

JSON: /api/v1/satellites/62402 · /tle

For live sub-satellite position, see the globe view (requires WebGL).

§ Visibility from observer

Set your observer location to see the next 7 days of passes ≥ 10°. The values pass through the URL so the page stays shareable.

No JS? Fill the form by hand. The geolocation button needs JavaScript.

§ Radio — SatNOGS DB

ModeDescriptionDownlinkUplink
GMSK Modu U - GMSK2k4 - Transmitter 401.800 MHz
GMSK Mode U - GMSK9k6 - Transmitter (inactive) 401.800 MHz

2 transmitters · refreshed weekly from db.satnogs.org